Tracking 20942 objects as of 11-Jul-2020
HD Live streaming from Space Station
objects crossing your sky now

THORAD DELTA 1 DEB

Track THORAD DELTA 1 DEB now!
10-day predictions


NORAD ID: 8152
Int'l Code: 1974-089S
Perigee: 1,385.8 km
Apogee: 1,476.0 km
Inclination: 101.6 °
Period: 114.3 minutes
Semi major axis: 7801 km
RCS: 0.0989 m2 (small)
Launch date: November 15, 1974
Source: United States (US)
Launch site: AIR FORCE WESTERN TEST RANGE (AFWTR)

Note: This is SATELLITE DEBRIS
aabbcc
Your satellite tracking list
Your tracking list is empty




NASA's NSSDC Master Catalog

Two Line Element Set (TLE):
1  8152U 74089S   20192.87930867 +.00000006 +00000-0 +29715-3 0  9999
2  8152 101.6381 161.3708 0057765 259.7707 156.4134 12.59804953097737
Source of the keplerian elements: AFSPC